GW4317 Weather Reports


time (UTC)temp
C
wind
direction
speed
KPH
gust
KPH
rain 1hr
cm
rain 24hr
cm
rain mn
cm
humidity
%
barometer
mb
20260504224603 27 144 12.9 25.7 0.00 0.00 0.00 60 1005.6
20260504224100 27 168 11.3 24.1 0.00 0.00 0.00 60 1005.6
20260504223559 27 217 11.3 25.7 0.00 0.00 0.00 60 1005.6
20260504223058 27 130 12.9 25.7 0.00 0.00 0.00 61 1005.7
20260504222600 27 316 11.3 25.7 0.00 0.00 0.00 61 1005.7
20260504222100 27 203 11.3 25.7 0.00 0.00 0.00 61 1005.6
20260504221600 27 194 11.3 25.7 0.00 0.00 0.00 61 1005.7
20260504221100 27 201 12.9 29.0 0.00 0.00 0.00 60 1005.7
20260504220600 27 214 9.7 29.0 0.00 0.00 0.00 60 1005.7
20260504220118 27 144 12.9 27.4 0.00 0.00 0.00 59 1005.8
20260504215600 27 202 9.7 25.7 0.00 0.00 0.00 61 1005.8
20260504215104 27 159 11.3 24.1 0.00 0.00 0.00 60 1005.9
20260504214600 27 158 11.3 24.1 0.00 0.00 0.00 59 1006.0
20260504214100 27 210 11.3 27.4 0.00 0.00 0.00 59 1006.1
20260504213559 27 224 11.3 27.4 0.00 0.00 0.00 60 1006.1
20260504213102 27 191 11.3 29.0 0.00 0.00 0.00 59 1006.3
20260504212559 27 197 12.9 29.0 0.00 0.00 0.00 59 1006.5
20260504212101 27 201 11.3 24.1 0.00 0.00 0.00 60 1006.7
20260504211559 27 153 11.3 20.9 0.00 0.00 0.00 59 1006.7
20260504211100 27 161 9.7 27.4 0.00 0.00 0.00 60 1006.6
20260504210600 27 158 9.7 27.4 0.00 0.00 0.00 60 1007.0
20260504210100 27 214 12.9 27.4 0.00 0.00 0.00 60 1007.1
20260504205559 27 149 12.9 22.5 0.00 0.00 0.00 59 1007.1
20260504205059 27 131 9.7 22.5 0.00 0.00 0.00 60 1007.2
20260504204600 27 150 12.9 22.5 0.00 0.00 0.00 61 1007.3
20260504204059 27 160 9.7 22.5 0.00 0.00 0.00 59 1007.4
20260504203600 27 143 11.3 20.9 0.00 0.00 0.00 60 1007.5
20260504203100 27 150 8.0 22.5 0.00 0.00 0.00 62 1007.6
20260504202600 27 182 9.7 25.7 0.00 0.00 0.00 60 1007.6
20260504202059 27 167 12.9 25.7 0.00 0.00 0.00 58 1007.7
20260504201559 27 193 12.9 25.7 0.00 0.00 0.00 59 1007.7
20260504201100 27 209 11.3 25.7 0.00 0.00 0.00 60 1007.8
20260504200559 27 210 12.9 24.1 0.00 0.00 0.00 60 1008.0
20260504195601 26 110 14.5 29.0 0.00 0.00 0.00 59 1008.2
20260504195100 27 128 11.3 24.1 0.00 0.00 0.00 60 1008.4
20260504194558 26 151 9.7 25.7 0.00 0.00 0.00 61 1008.5
20260504194100 26 165 14.5 25.7 0.00 0.00 0.00 60 1008.5
20260504193600 26 229 11.3 25.7 0.00 0.00 0.00 59 1008.5
20260504193100 26 143 11.3 22.5 0.00 0.00 0.00 59 1008.6
20260504192559 26 196 11.3 24.1 0.00 0.00 0.00 59 1008.6
20260504192100 26 207 9.7 24.1 0.00 0.00 0.00 62 1008.7
20260504191600 26 189 11.3 24.1 0.00 0.00 0.00 59 1008.9
20260504191101 26 204 11.3 24.1 0.00 0.00 0.00 60 1008.9
20260504190600 26 150 11.3 24.1 0.00 0.00 0.00 60 1009.0
20260504190111 26 205 12.9 20.9 0.00 0.00 0.00 61 1009.2
20260504185602 26 170 11.3 24.1 0.00 0.00 0.00 61 1009.4
20260504185100 26 167 9.7 24.1 0.00 0.00 0.00 63 1009.4
20260504184614 25 196 14.5 24.1 0.00 0.00 0.00 60 1009.4
20260504184100 25 181 12.9 25.7 0.00 0.00 0.00 62 1009.5
20260504183600 25 240 12.9 27.4 0.00 0.00 0.00 60 1009.6
20260504183111 25 204 14.5 29.0 0.00 0.00 0.00 60 1009.7
20260504182601 25 205 12.9 29.0 0.00 0.00 0.00 61 1010.0
20260504182100 25 198 12.9 32.2 0.00 0.00 0.00 61 1009.9
20260504181559 25 187 12.9 32.2 0.00 0.00 0.00 61 1009.9
20260504181102 25 211 11.3 29.0 0.00 0.00 0.00 60 1010.0
20260504180559 25 214 12.9 29.0 0.00 0.00 0.00 59 1010.2
20260504175601 25 139 11.3 29.0 0.00 0.00 0.00 61 1010.3
20260504175100 25 215 12.9 25.7 0.00 0.00 0.00 61 1010.3
20260504174609 25 224 14.5 25.7 0.00 0.00 0.00 62 1010.2
20260504174100 25 141 12.9 22.5 0.00 0.00 0.00 61 1010.3
20260504173559 25 217 12.9 29.0 0.00 0.00 0.00 61 1010.4
20260504173104 25 194 11.3 29.0 0.00 0.00 0.00 63 1010.5
20260504172559 24 219 12.9 29.0 0.00 0.00 0.00 61 1010.3
20260504172059 24 154 14.5 25.7 0.00 0.00 0.00 61 1010.6
20260504171558 24 232 12.9 25.7 0.00 0.00 0.00 61 1010.8
20260504171103 24 207 11.3 27.4 0.00 0.00 0.00 64 1010.7
20260504170601 23 231 16.1 27.4 0.00 0.00 0.00 61 1011.0
20260504170108 23 217 14.5 30.6 0.00 0.00 0.00 61 1011.0
20260504151100 21 141 11.3 30.6 0.00 0.00 0.00 68 1011.9
20260504150603 21 222 16.1 30.6 0.00 0.00 0.00 67 1011.8
20260504150103 21 215 16.1 30.6 0.00 0.00 0.00 67 1012.0
20260504141059 20 233 12.9 27.4 0.00 0.00 0.00 71 1012.1
20260504140559 20 142 12.9 27.4 0.00 0.00 0.00 72 1012.3
20260504130600 17 220 9.7 16.1 0.00 0.00 0.00 76 1012.5
20260504120104 16 201 6.4 14.5 0.00 0.00 0.00 74 1012.1
20260504110600 16 194 6.4 11.3 0.00 0.00 0.00 76 1012.2
20260504100600 16 182 4.8 14.5 0.00 0.00 0.00 72 1012.5
20260504100109 16 194 6.4 14.5 0.00 0.00 0.00 72 1012.4
20260504081601 17 184 4.8 14.5 0.00 0.00 0.00 64 1012.9
20260504081103 17 218 6.4 11.3 0.00 0.00 0.00 64 1013.0
20260504080600 17 205 4.8 12.9 0.00 0.00 0.00 65 1013.0
20260504050600 18 161 3.2 8.0 0.00 0.00 0.00 62 1015.1
20260504045559 18 210 1.6 4.8 0.00 0.00 0.00 61 1015.2
20260504045059 18 214 1.6 4.8 0.00 0.00 0.00 61 1015.2
20260504044604 18 162 3.2 6.4 0.00 0.00 0.00 60 1015.1
20260504044100 18 159 3.2 6.4 0.00 0.00 0.00 59 1015.2
20260504043600 18 150 3.2 6.4 0.00 0.00 0.00 59 1015.2
20260504043102 18 215 3.2 11.3 0.00 0.00 0.00 58 1015.3
20260504042600 19 219 3.2 11.3 0.00 0.00 0.00 58 1015.4
20260504042105 19 208 3.2 11.3 0.00 0.00 0.00 57 1015.4
20260504041559 19 167 4.8 6.4 0.00 0.00 0.00 57 1015.4
20260504041100 19 148 3.2 8.0 0.00 0.00 0.00 57 1015.4
20260504040600 19 236 3.2 8.0 0.00 0.00 0.00 56 1015.5
20260504040106 19 148 3.2 8.0 0.00 0.00 0.00 56 1015.4
20260504035600 19 194 4.8 8.0 0.00 0.00 0.00 55 1015.4
20260504035059 20 208 3.2 8.0 0.00 0.00 0.00 55 1015.4
20260504034612 20 127 3.2 8.0 0.00 0.00 0.00 55 1015.3
20260504034102 20 200 3.2 9.7 0.00 0.00 0.00 54 1015.3
20260504033602 20 122 3.2 9.7 0.00 0.00 0.00 54 1015.2
20260504033127 20 146 4.8 9.7 0.00 0.00 0.00 54 1015.3
20260504032601 20 165 3.2 9.7 0.00 0.00 0.00 53 1015.3
20260504032102 20 203 4.8 8.0 0.00 0.00 0.00 52 1015.2
20260504031603 20 204 3.2 9.7 0.00 0.00 0.00 52 1015.2
20260504031100 20 203 3.2 9.7 0.00 0.00 0.00 51 1015.3
20260504030600 20 158 4.8 11.3 0.00 0.00 0.00 51 1015.2
20260504030101 20 209 4.8 11.3 0.00 0.00 0.00 50 1015.2
20260504025600 20 172 3.2 8.0 0.00 0.00 0.00 49 1015.1
20260504025101 21 197 4.8 9.7 0.00 0.00 0.00 49 1015.1
20260504024600 21 199 3.2 9.7 0.00 0.00 0.00 48 1015.0
20260504024104 21 188 3.2 9.7 0.00 0.00 0.00 48 1015.0
20260504023600 21 154 4.8 11.3 0.00 0.00 0.00 47 1015.0
20260504023105 21 167 4.8 12.9 0.00 0.00 0.00 47 1014.9
20260504022600 21 181 4.8 12.9 0.00 0.00 0.00 46 1014.9
20260504022100 21 158 4.8 12.9 0.00 0.00 0.00 46 1014.9
20260504021559 21 113 4.8 12.9 0.00 0.00 0.00 46 1014.9
20260504021100 21 159 4.8 12.9 0.00 0.00 0.00 46 1014.8
20260504020600 22 222 4.8 14.5 0.00 0.00 0.00 45 1014.9
20260504015600 22 170 6.4 14.5 0.00 0.00 0.00 45 1014.9
20260504015103 22 68 6.4 14.5 0.00 0.00 0.00 44 1014.9
20260504014558 22 199 4.8 14.5 0.00 0.00 0.00 44 1014.8
20260504014100 22 161 4.8 16.1 0.00 0.00 0.00 44 1014.8
20260504013600 22 174 9.7 16.1 0.00 0.00 0.00 44 1014.7
20260504013111 22 207 4.8 12.9 0.00 0.00 0.00 44 1014.6
20260504012601 22 178 4.8 11.3 0.00 0.00 0.00 45 1014.6
20260504012102 22 166 4.8 11.3 0.00 0.00 0.00 44 1014.5
20260504011606 22 150 6.4 11.3 0.00 0.00 0.00 44 1014.5
20260504011059 22 160 3.2 9.7 0.00 0.00 0.00 44 1014.6
20260504010559 22 174 3.2 9.7 0.00 0.00 0.00 44 1014.5
20260504010114 23 151 4.8 9.7 0.00 0.00 0.00 43 1014.5
20260504005604 23 208 4.8 9.7 0.00 0.00 0.00 43 1014.4
20260504005100 23 215 3.2 11.3 0.00 0.00 0.00 42 1014.3
20260504004627 23 173 4.8 11.3 0.00 0.00 0.00 42 1014.3
20260504004100 23 199 4.8 11.3 0.00 0.00 0.00 41 1014.3
20260504003603 24 145 3.2 12.9 0.00 0.00 0.00 41 1014.4
20260504003058 24 204 6.4 12.9 0.00 0.00 0.00 40 1014.5
20260504002600 25 155 6.4 12.9 0.00 0.00 0.00 39 1014.5
20260504002100 25 205 6.4 19.3 0.00 0.00 0.00 38 1014.5
20260504001612 26 158 8.0 19.3 0.00 0.00 0.00 37 1014.5
20260504001100 26 202 6.4 14.5 0.00 0.00 0.00 37 1014.5
20260504000559 26 188 6.4 14.5 0.00 0.00 0.00 36 1014.6
20260504000101 26 200 6.4 12.9 0.00 0.00 0.00 36 1014.6
20260503235600 26 217 6.4 19.3 0.00 0.00 0.00 36 1014.6
20260503235100 26 169 8.0 19.3 0.00 0.00 0.00 37 1014.7
20260503234558 26 158 6.4 19.3 0.00 0.00 0.00 37 1014.7
20260503234102 26 209 8.0 19.3 0.00 0.00 0.00 37 1014.8
20260503233601 26 209 9.7 19.3 0.00 0.00 0.00 34 1014.8
20260503233100 27 195 8.0 19.3 0.00 0.00 0.00 35 1014.8
20260503232600 27 176 6.4 19.3 0.00 0.00 0.00 35 1014.7
20260503232100 27 207 8.0 19.3 0.00 0.00 0.00 33 1014.9
20260503231559 27 212 8.0 19.3 0.00 0.00 0.00 32 1014.9
20260503231101 26 173 9.7 19.3 0.00 0.00 0.00 34 1015.0
20260503230601 26 210 6.4 14.5 0.00 0.00 0.00 34 1015.0
20260503230104 27 170 4.8 14.5 0.00 0.00 0.00 35 1015.0
20260503225604 27 252 8.0 14.5 0.00 0.00 0.00 33 1015.0
20260503225100 27 205 4.8 17.7 0.00 0.00 0.00 33 1015.0